Location: Moscow
(55.7500°N, 37.5830°E)
Time: 06:02:19
(UTC+03:00)

Vanguard 1 - Pass Details

Date: 05 December 2021
Orbit: 652 x 3830 km, 34.2° (Epoch: 21 January)

Event Time Altitude Azimuth Distance (km) Brightness Sun altitude
Rises 21:22:22 0° 179° (S) 6,924 14.2 -43.4°
Enters shadow 21:23:26 - 177° (S) 6,829 14.1 -43.5°
Reaches altitude 10° 21:29:44 10° 161° (SSE) 6,410 - -44.3°
Maximum altitude 21:40:28 16° 131° (SE) 6,289 - -45.6°
Drops below altitude 10° 21:51:50 10° 101° (ESE) 6,912 - -46.9°
Sets 22:00:13 0° 85° (E) 7,725 - -47.9°
